Location: Park Creek Village Mobile Home Park
(38.2885°N, 122.4714°W)
Time: 19:47:35
(UTC+00:00)

Cosmos 44 - Pass Details

Date: 14 December 2019
Orbit: 595 x 767 km, 65.1° (Epoch: 18 January)

Event Time Altitude Azimuth Distance (km) Brightness Sun altitude
Exits shadow 13:37:27 37° 316° (NW) 999 3.7 -19.2°
Drops below altitude 10° 13:41:23 10° 15° (NNE) 2,010 5.7 -18.5°
Sets 13:43:45 0° 23° (NNE) 2,897 6.6 -18.0°
